Location: Unspecified
(0.0000°N, 0.0000°E)
Time: 07:31:48
(UTC+00:00)

SR - Pass Details

Date: 20 December 2018
Orbit: 582 x 874 km, 66.7° (Epoch: 16 June)

Event Time Altitude Azimuth Distance (km) Brightness Sun altitude
Rises 23:04:37 0° 200° (SSW) 3,433 - -63.2°
Reaches altitude 10° 23:07:05 10° 200° (SSW) 2,510 - -63.5°
Maximum altitude 23:12:58 88° 289° (WNW) 876 - -64.2°
Drops below altitude 10° 23:18:47 10° 19° (NNE) 2,484 - -64.7°
Sets 23:21:13 0° 19° (NNE) 3,395 - -64.9°
